| time (UTC) | temp C | wind direction | speed KPH | gust KPH | rain 1hr cm | rain 24hr cm | rain mn cm | humidity % | barometer mb |
| 20260507073110 | 7 | 38 | 1.6 | 4.8 | 0.00 | 1.45 | 0.38 | 1 | 1010.7 |
| 20260507072110 | 7 | 38 | 1.6 | 4.8 | 0.00 | 1.45 | 0.38 | 1 | 1010.6 |
| 20260507071110 | 7 | 38 | 1.6 | 8.0 | 0.00 | 1.45 | 0.38 | 1 | 1010.5 |
| 20260507070110 | 8 | 27 | 3.2 | 9.7 | 0.00 | 1.45 | 0.38 | 1 | 1010.5 |
| 20260507065110 | 8 | 9 | 3.2 | 11.3 | 0.00 | 1.50 | 0.38 | 1 | 1010.4 |
| 20260507064110 | 8 | 9 | 1.6 | 8.0 | 0.00 | 1.50 | 0.38 | 1 | 1010.2 |
| 20260507063110 | 8 | 338 | 1.6 | 6.4 | 0.00 | 1.50 | 0.38 | 1 | 1010.0 |
| 20260507062109 | 8 | 276 | 0.0 | 0.0 | 0.00 | 1.50 | 0.38 | 1 | 1009.8 |
| 20260507061109 | 9 | 276 | 0.0 | 0.0 | 0.00 | 1.50 | 0.38 | 1 | 1009.8 |
| 20260507060109 | 9 | 276 | 0.0 | 0.0 | 0.00 | 1.50 | 0.38 | 1 | 1009.7 |
| 20260507054109 | 8 | 277 | 0.0 | 0.0 | 0.00 | 1.55 | 0.38 | 1 | 1009.4 |
| 20260507053109 | 9 | 277 | 0.0 | 0.0 | 0.00 | 1.55 | 0.38 | 1 | 1009.3 |
| 20260507052113 | 8 | 277 | 0.0 | 0.0 | 0.00 | 1.55 | 0.38 | 1 | 1009.1 |
| 20260507051113 | 8 | 277 | 0.0 | 0.0 | 0.00 | 1.55 | 0.38 | 1 | 1009.0 |
| 20260507050113 | 8 | 277 | 0.0 | 0.0 | 0.00 | 1.55 | 0.38 | 1 | 1008.9 |
| 20260507045113 | 9 | 277 | 0.0 | 0.0 | 0.00 | 1.55 | 0.38 | 1 | 1008.8 |
| 20260507044113 | 8 | 277 | 0.0 | 0.0 | 0.00 | 1.55 | 0.38 | 1 | 1008.6 |
| 20260507043113 | 8 | 277 | 0.0 | 0.0 | 0.00 | 1.55 | 0.38 | 1 | 1008.6 |
| 20260507042113 | 8 | 277 | 0.0 | 0.0 | 0.00 | 1.55 | 0.38 | 1 | 1008.5 |
| 20260507041113 | 8 | 277 | 0.0 | 0.0 | 0.03 | 1.55 | 0.38 | 1 | 1008.4 |
| 20260507035113 | 8 | 277 | 0.0 | 0.0 | 0.03 | 1.55 | 0.38 | 1 | 1008.3 |
| 20260507034113 | 8 | 277 | 0.0 | 0.0 | 0.03 | 1.55 | 0.38 | 1 | 1008.3 |
| 20260507033113 | 8 | 277 | 0.0 | 0.0 | 0.03 | 1.55 | 0.38 | 1 | 1008.3 |
| 20260507032112 | 8 | 277 | 0.0 | 0.0 | 0.03 | 1.55 | 0.38 | 1 | 1008.3 |
| 20260507031112 | 8 | 277 | 0.0 | 0.0 | 0.00 | 1.55 | 0.36 | 1 | 1008.2 |
| 20260507030112 | 8 | 277 | 0.0 | 0.0 | 0.03 | 1.55 | 0.36 | 1 | 1008.1 |
| 20260507025112 | 8 | 277 | 0.0 | 0.0 | 0.03 | 1.75 | 0.36 | 1 | 1008.0 |
| 20260507024112 | 8 | 277 | 0.0 | 0.0 | 0.08 | 1.75 | 0.36 | 1 | 1008.0 |
| 20260507023112 | 8 | 277 | 0.0 | 0.0 | 0.15 | 1.75 | 0.36 | 1 | 1008.0 |
| 20260507022112 | 8 | 277 | 0.0 | 0.0 | 0.25 | 1.75 | 0.36 | 1 | 1008.0 |
| 20260507021112 | 8 | 277 | 0.0 | 0.0 | 0.33 | 1.75 | 0.36 | 1 | 1007.9 |
| 20260507020111 | 8 | 277 | 0.0 | 0.0 | 0.33 | 1.75 | 0.33 | 1 | 1007.9 |
| 20260507014111 | 8 | 277 | 0.0 | 0.0 | 0.25 | 2.11 | 0.28 | 1 | 1007.8 |
| 20260507013111 | 8 | 277 | 0.0 | 0.0 | 0.20 | 2.06 | 0.23 | 1 | 1007.8 |
| 20260507012111 | 8 | 277 | 0.0 | 0.0 | 0.08 | 1.93 | 0.10 | 1 | 1007.7 |
| 20260507011111 | 8 | 277 | 0.0 | 12.9 | 0.00 | 1.85 | 0.03 | 1 | 1007.7 |
| 20260507010111 | 8 | 277 | 0.0 | 0.0 | 0.00 | 1.85 | 0.03 | 1 | 1007.5 |
| 20260507004111 | 8 | 277 | 0.0 | 6.4 | 0.00 | 2.41 | 0.03 | 1 | 1007.6 |
| 20260507003111 | 8 | 277 | 0.0 | 0.0 | 0.00 | 2.41 | 0.03 | 1 | 1007.5 |
| 20260507002110 | 8 | 277 | 0.0 | 4.8 | 0.00 | 2.41 | 0.03 | 1 | 1007.5 |
| 20260507001110 | 8 | 277 | 1.6 | 17.7 | 0.00 | 2.41 | 0.03 | 1 | 1007.5 |
| 20260507000110 | 8 | 277 | 1.6 | 4.8 | 0.03 | 2.41 | 0.03 | 1 | 1007.4 |
| 20260506234110 | 8 | 277 | 0.0 | 4.8 | 0.03 | 2.77 | 0.03 | 1 | 1007.4 |
| 20260506233110 | 8 | 277 | 1.6 | 9.7 | 0.03 | 2.77 | 0.03 | 1 | 1007.4 |
| 20260506232110 | 8 | 277 | 3.2 | 6.4 | 0.03 | 2.77 | 0.03 | 1 | 1007.3 |
| 20260506231110 | 8 | 277 | 3.2 | 6.4 | 0.03 | 2.77 | 0.03 | 1 | 1007.4 |
| 20260506230109 | 8 | 278 | 0.0 | 3.2 | 0.00 | 2.74 | 0.00 | 1 | 1007.3 |
| 20260506225110 | 8 | 281 | 0.0 | 4.8 | 0.00 | 3.23 | 0.00 | 1 | 1007.3 |
| 20260506224109 | 8 | 281 | 3.2 | 9.7 | 0.00 | 3.23 | 0.00 | 1 | 1007.1 |
| 20260506223109 | 8 | 273 | 3.2 | 12.9 | 0.00 | 3.23 | 0.00 | 1 | 1007.2 |
| 20260506222109 | 8 | 273 | 4.8 | 11.3 | 0.03 | 3.23 | 0.00 | 1 | 1007.1 |
| 20260506221109 | 9 | 278 | 3.2 | 9.7 | 0.03 | 3.23 | 0.00 | 1 | 1007.0 |
| 20260506220109 | 9 | 272 | 4.8 | 11.3 | 0.03 | 3.23 | 0.00 | 1 | 1007.0 |
| 20260506215113 | 9 | 285 | 1.6 | 6.4 | 0.05 | 3.51 | 3.51 | 1 | 1006.9 |
| 20260506214114 | 9 | 302 | 4.8 | 12.9 | 0.05 | 3.51 | 3.51 | 1 | 1006.9 |
| 20260506213113 | 9 | 273 | 4.8 | 12.9 | 0.05 | 3.51 | 3.51 | 1 | 1006.8 |
| 20260506212113 | 10 | 297 | 6.4 | 12.9 | 0.03 | 3.48 | 3.48 | 1 | 1006.9 |
| 20260506211113 | 10 | 287 | 1.6 | 8.0 | 0.03 | 3.48 | 3.48 | 1 | 1006.7 |
| 20260506210113 | 10 | 290 | 0.0 | 12.9 | 0.03 | 3.48 | 3.48 | 1 | 1006.7 |
| 20260506205113 | 10 | 290 | 3.2 | 6.4 | 0.00 | 3.63 | 3.45 | 1 | 1006.6 |
| 20260506204113 | 10 | 295 | 3.2 | 6.4 | 0.00 | 3.63 | 3.45 | 1 | 1006.6 |
| 20260506203112 | 10 | 256 | 0.0 | 0.0 | 0.00 | 3.63 | 3.45 | 1 | 1006.5 |
| 20260506202112 | 10 | 256 | 0.0 | 0.0 | 0.00 | 3.63 | 3.45 | 1 | 1006.5 |
| 20260506200112 | 11 | 256 | 0.0 | 0.0 | 0.00 | 3.63 | 3.45 | 1 | 1006.3 |
| 20260506195113 | 11 | 256 | 0.0 | 0.0 | 0.00 | 3.86 | 3.45 | 1 | 1006.3 |
| 20260506194112 | 11 | 256 | 0.0 | 0.0 | 0.00 | 3.86 | 3.45 | 1 | 1006.2 |
| 20260506193112 | 11 | 256 | 0.0 | 0.0 | 0.00 | 3.86 | 3.45 | 1 | 1006.1 |
| 20260506192112 | 11 | 256 | 0.0 | 0.0 | 0.00 | 3.86 | 3.45 | 1 | 1006.1 |
| 20260506191112 | 11 | 256 | 0.0 | 0.0 | 0.00 | 3.86 | 3.45 | 1 | 1005.9 |
| 20260506185111 | 11 | 256 | 0.0 | 4.8 | 0.00 | 3.99 | 3.45 | 1 | 1005.6 |
| 20260506184111 | 11 | 257 | 0.0 | 4.8 | 0.00 | 3.99 | 3.45 | 1 | 1005.4 |
| 20260506182111 | 11 | 256 | 3.2 | 11.3 | 0.00 | 3.99 | 3.45 | 1 | 1005.2 |
| 20260506181111 | 11 | 259 | 1.6 | 9.7 | 0.00 | 3.99 | 3.45 | 1 | 1004.9 |
| 20260506180111 | 11 | 259 | 1.6 | 4.8 | 0.00 | 3.99 | 3.45 | 1 | 1004.9 |
| 20260506175111 | 11 | 257 | 3.2 | 6.4 | 0.00 | 4.04 | 3.45 | 1 | 1004.9 |
| 20260506174111 | 11 | 261 | 3.2 | 6.4 | 0.00 | 4.04 | 3.45 | 1 | 1004.9 |
| 20260506173111 | 12 | 262 | 1.6 | 9.7 | 0.00 | 4.04 | 3.45 | 1 | 1005.0 |
| 20260506172111 | 12 | 265 | 3.2 | 14.5 | 0.00 | 4.04 | 3.45 | 1 | 1004.9 |
| 20260506171111 | 12 | 294 | 3.2 | 16.1 | 0.00 | 4.04 | 3.45 | 1 | 1004.9 |
| 20260506170111 | 12 | 267 | 6.4 | 16.1 | 0.00 | 4.04 | 3.45 | 1 | 1004.8 |
| 20260506165110 | 12 | 273 | 4.8 | 16.1 | 0.00 | 4.17 | 3.45 | 1 | 1004.7 |
| 20260506164110 | 12 | 271 | 1.6 | 11.3 | 0.00 | 4.17 | 3.45 | 1 | 1004.7 |
| 20260506162110 | 13 | 262 | 6.4 | 17.7 | 0.00 | 4.17 | 3.45 | 1 | 1004.6 |
| 20260506161110 | 13 | 260 | 3.2 | 14.5 | 0.00 | 4.17 | 3.45 | 1 | 1004.5 |
| 20260506160110 | 13 | 281 | 1.6 | 9.7 | 0.00 | 4.17 | 3.45 | 1 | 1004.5 |
| 20260506155110 | 14 | 273 | 1.6 | 6.4 | 0.00 | 4.24 | 3.45 | 1 | 1004.5 |
| 20260506154110 | 14 | 269 | 4.8 | 17.7 | 0.00 | 4.24 | 3.45 | 1 | 1004.5 |
| 20260506153110 | 14 | 286 | 8.0 | 16.1 | 0.00 | 4.24 | 3.45 | 1 | 1004.6 |
| 20260506152109 | 15 | 286 | 6.4 | 14.5 | 0.00 | 4.24 | 3.45 | 1 | 1004.6 |
| 20260506151109 | 15 | 275 | 6.4 | 14.5 | 0.00 | 4.24 | 3.45 | 1 | 1004.6 |
| 20260506150109 | 15 | 297 | 6.4 | 14.5 | 0.00 | 4.24 | 3.45 | 1 | 1004.6 |
| 20260506145109 | 15 | 282 | 3.2 | 11.3 | 0.00 | 4.24 | 3.45 | 1 | 1004.7 |
| 20260506144109 | 16 | 276 | 3.2 | 12.9 | 0.00 | 4.24 | 3.45 | 1 | 1004.6 |
| 20260506142114 | 15 | 265 | 0.0 | 3.2 | 0.00 | 4.24 | 3.45 | 1 | 1004.6 |
| 20260506141113 | 15 | 265 | 0.0 | 0.0 | 0.00 | 4.24 | 3.45 | 1 | 1004.7 |
| 20260506140114 | 15 | 265 | 0.0 | 4.8 | 0.00 | 4.24 | 3.45 | 1 | 1004.7 |
| 20260506135113 | 15 | 265 | 0.0 | 4.8 | 0.03 | 4.24 | 3.45 | 1 | 1004.8 |
| 20260506134113 | 15 | 265 | 0.0 | 0.0 | 0.05 | 4.24 | 3.45 | 1 | 1004.8 |
| 20260506133113 | 15 | 264 | 1.6 | 9.7 | 0.15 | 4.24 | 3.45 | 1 | 1004.8 |
| 20260506132113 | 15 | 41 | 0.0 | 0.0 | 0.23 | 4.24 | 3.45 | 1 | 1004.7 |
| 20260506131113 | 14 | 41 | 0.0 | 0.0 | 0.46 | 4.24 | 3.45 | 1 | 1004.6 |
| 20260506130113 | 13 | 41 | 0.0 | 0.0 | 0.46 | 4.24 | 3.45 | 1 | 1004.5 |
| 20260506125113 | 13 | 41 | 0.0 | 0.0 | 0.43 | 4.22 | 3.43 | 1 | 1004.6 |
| 20260506124113 | 13 | 41 | 0.0 | 0.0 | 0.48 | 4.19 | 3.43 | 1 | 1004.6 |
| 20260506122113 | 13 | 41 | 0.0 | 0.0 | 0.51 | 4.01 | 3.25 | 1 | 1004.5 |
| 20260506121112 | 13 | 41 | 0.0 | 0.0 | 0.36 | 3.78 | 3.00 | 1 | 1004.5 |
| 20260506120112 | 13 | 41 | 1.6 | 6.4 | 0.48 | 3.78 | 3.00 | 1 | 1004.4 |
| 20260506115112 | 13 | 40 | 0.0 | 3.2 | 0.51 | 3.78 | 3.00 | 1 | 1004.4 |
| 20260506114112 | 13 | 40 | 0.0 | 0.0 | 0.43 | 3.71 | 2.95 | 1 | 1004.3 |
| 20260506113112 | 13 | 40 | 0.0 | 0.0 | 0.33 | 3.63 | 2.84 | 1 | 1004.3 |
| 20260506112112 | 13 | 40 | 0.0 | 0.0 | 0.23 | 3.53 | 2.74 | 1 | 1004.3 |
| 20260506111112 | 13 | 40 | 0.0 | 0.0 | 0.15 | 3.43 | 2.64 | 1 | 1004.3 |
| 20260506110112 | 13 | 40 | 0.0 | 0.0 | 0.03 | 3.30 | 2.51 | 1 | 1004.3 |
| 20260506105112 | 13 | 40 | 0.0 | 8.0 | 0.00 | 3.28 | 2.49 | 1 | 1004.2 |
| 20260506104112 | 13 | 36 | 0.0 | 9.7 | 0.00 | 3.28 | 2.49 | 1 | 1004.2 |
| 20260506103111 | 13 | 36 | 3.2 | 9.7 | 0.00 | 3.28 | 2.49 | 1 | 1004.3 |
| 20260506102111 | 13 | 20 | 1.6 | 6.4 | 0.00 | 3.28 | 2.49 | 1 | 1004.3 |
| 20260506101111 | 13 | 20 | 1.6 | 8.0 | 0.00 | 3.28 | 2.49 | 1 | 1004.2 |
| 20260506100111 | 13 | 13 | 0.0 | 0.0 | 0.00 | 3.28 | 2.49 | 1 | 1004.2 |
| 20260506095111 | 12 | 13 | 0.0 | 0.0 | 0.00 | 3.28 | 2.49 | 1 | 1004.1 |
| 20260506094111 | 13 | 13 | 0.0 | 0.0 | 0.03 | 3.28 | 2.49 | 1 | 1004.2 |
| 20260506093111 | 12 | 13 | 0.0 | 0.0 | 0.03 | 3.28 | 2.49 | 1 | 1004.1 |
| 20260506092111 | 13 | 13 | 1.6 | 6.4 | 0.03 | 3.28 | 2.49 | 1 | 1004.0 |
| 20260506091111 | 12 | 13 | 0.0 | 0.0 | 0.05 | 3.28 | 2.49 | 1 | 1004.1 |
| 20260506090110 | 12 | 13 | 0.0 | 0.0 | 0.05 | 3.28 | 2.49 | 1 | 1004.1 |
| 20260506085110 | 12 | 13 | 0.0 | 0.0 | 0.05 | 3.28 | 2.49 | 1 | 1004.2 |
| 20260506084110 | 11 | 13 | 0.0 | 0.0 | 0.05 | 3.25 | 2.49 | 1 | 1004.1 |
| 20260506083110 | 11 | 13 | 0.0 | 0.0 | 0.05 | 3.25 | 2.49 | 1 | 1004.0 |
| 20260506082110 | 11 | 13 | 0.0 | 0.0 | 0.08 | 3.25 | 2.49 | 1 | 1003.9 |
| 20260506081110 | 11 | 13 | 0.0 | 0.0 | 0.05 | 3.23 | 2.44 | 1 | 1003.9 |